EHI
52 50 47 42 38 31 26 26 33 38 37 32 29 27 22 21 24 22 18 17 17 18 20 22 20 16 12 13 14 13 12 9 5 2 5 11 15 15 15 15 14 8 3
45 44 41 39 36 30 26 26 30 34 34 29 25 23 19 19 21 20 17 15 15 16 18 19 17 15 16 17 16 13 10 7 4 2 4 10 14 16 18 16 9 4 1
37 37 37 36 33 28 25 26 27 29 30 27 23 20 18 16 16 16 15 12 12 13 14 15 14 14 17 18 16 13 9 6 4 2 3 7 9 13 16 13 5 0 0
35 35 36 35 30 26 24 26 26 27 28 28 25 21 17 13 11 12 13 12 11 10 9 10 10 11 13 14 14 13 11 7 4 2 3 4 6 7 9 6 2 0 0
34 34 34 32 27 24 23 23 25 26 28 30 28 22 15 9 7 8 11 12 10 8 7 7 8 8 7 8 8 9 9 7 5 2 2 3 4 4 4 3 1 0 0
30 28 27 25 23 22 21 21 23 25 27 29 26 19 11 5 3 3 7 10 10 8 7 6 5 4 3 2 2 3 3 4 3 2 2 2 2 3 3 1 0 0 0
24 21 19 19 20 21 20 21 22 22 25 26 22 15 9 3 0 0 3 6 8 8 7 6 4 2 1 1 1 1 1 1 1 1 1 1 1 2 1 0 0 0 0
19 17 17 19 20 20 20 21 21 21 22 21 17 12 8 3 1 0 1 3 5 6 6 6 5 4 3 2 2 2 2 1 0 0 0 0 0 0 0 0 0 0 0
20 19 20 21 20 19 20 20 21 22 20 16 13 11 8 4 1 0 1 2 4 5 6 5 4 4 3 3 3 3 3 2 1 1 0 0 0 0 0 0 0 0 0
23 23 22 22 21 20 20 22 22 21 18 12 9 8 6 4 2 1 0 1 2 4 4 3 2 2 2 2 2 3 3 3 3 2 1 1 1 1 0 0 0 0 0
25 24 23 22 21 20 21 23 22 19 13 9 6 5 4 3 2 1 0 0 1 2 2 1 0 1 1 0 1 2 2 3 3 3 3 2 2 2 1 1 1 0 0
23 22 21 20 19 19 20 20 18 14 9 5 4 4 3 2 1 0 0 0 1 1 0 0 0 0 0 0 0 1 1 1 2 3 3 3 3 2 2 2 2 1 1
17 17 17 16 15 16 16 14 11 10 7 5 3 3 2 2 1 0 0 0 0 0 0 0 0 0 0 0 0 0 0 0 1 1 3 3 3 2 2 3 3 3 2
13 13 13 13 11 10 9 7 6 6 7 5 3 1 1 1 1 0 0 0 0 0 0 0 0 0 0 0 0 0 0 0 0 1 2 2 2 1 1 2 2 2 2
11 11 11 9 7 5 4 4 3 3 4 3 2 1 0 0 0 0 0 0 0 0 0 0 0 0 0 0 0 0 0 0 0 0 1 1 1 0 0 1 1 1 1
8 9 8 7 5 4 3 3 1 1 1 1 1 0 0 0 0 0 0 0 0 0 0 0 0 0 0 0 0 0 0 0 0 0 0 0 0 0 0 0 0 0 0
5 6 5 4 3 3 3 2 1 0 0 0 0 0 0 0 0 0 0 0 0 0 0 0 0 0 0 0 0 0 0 0 0 0 0 0 0 0 0 0 0 0 0
3 3 2 2 3 3 3 2 1 0 0 0 0 0 0 0 0 0 0 0 0 0 0 0 0 0 0 0 0 0 0 0 0 0 0 0 0 0 0 0 0 0 0
2 1 0 1 2 3 3 2 1 0 0 0 0 0 0 0 0 0 0 0 0 0 0 0 0 0 0 0 0 0 0 0 0 0 0 0 0 0 0 0 0 0 0
1 0 0 0 1 2 2 1 0 0 0 0 0 0 0 0 0 0 0 0 0 0 0 0 0 0 0 0 0 0 0 0 0 0 0 0 0 0 0 0 0 0 0
0 0 0 0 1 1 1 0 0 0 0 0 0 0 0 0 0 0 0 0 0 0 0 0 0 0 0 0 0 0 0 0 0 0 0 0 0 0 0 0 0 0 0
0 0 0 0 0 0 0 0 0 0 0 0 0 0 0 0 0 0 0 0 0 0 0 0 0 0 0 0 0 0 0 0 0 0 0 0 0 0 0 0 0 0 0
0 0 0 0 0 0 0 0 0 0 0 0 0 0 0 0 0 0 0 0 0 0 0 0 0 0 0 0 0 0 0 0 0 0 0 0 0 0 0 0 0 0 0
0 0 0 0 0 0 0 0 0 0 0 0 0 0 0 0 0 0 0 0 0 0 0 0 0 0 0 0 0 0 0 0 0 0 0 0 0 0 0 0 0 0 0
0 0 0 0 0 0 0 0 0 0 0 0 0 0 0 0 0 0 0 0 0 0 0 0 0 0 0 0 0 0 0 0 0 0 0 0 0 0 0 0 0 0 0
0 0 0 0 0 0 0 0 0 0 0 0 0 0 0 0 0 0 0 0 0 0 0 0 0 0 0 0 0 0 0 0 0 0 0 0 0 0 0 0 0 0 0
Wind_Speed
5 5 4 4 4 4 3 4 3 2 3 3 4 4 4 4 5 5 5 5 5 5 5 5 5 4 3 2 2 2 2 2 2 2 1 1 1 1 2 2 3 4 6
4 4 4 3 3 3 4 3 3 2 2 3 3 3 4 4 4 5 6 5 5 5 5 4 4 4 4 3 2 2 2 1 2 3 2 1 1 1 2 3 3 3 3
4 4 4 3 3 3 3 2 3 3 2 2 2 2 3 3 3 3 3 3 3 3 3 3 3 3 3 2 2 2 1 2 2 2 2 2 1 1 1 2 3 2 4
4 4 4 3 3 3 3 3 3 3 3 2 2 2 1 1 1 2 2 2 1 1 1 1 1 1 2 2 2 2 2 1 1 1 2 2 1 1 0 1 2 2 3
3 3 3 3 3 4 3 3 3 3 3 2 2 2 1 1 1 1 1 1 1 1 1 1 1 2 1 1 1 0 0 0 1 1 1 1 1 2 1 2 2 3 2
2 3 3 4 4 4 4 4 3 3 2 3 3 3 2 1 3 3 2 2 2 2 2 1 1 2 2 2 3 2 1 0 1 1 1 1 2 2 2 2 2 3 3
2 3 3 4 4 4 4 4 4 4 3 4 3 3 4 4 5 6 5 4 3 3 3 2 1 2 2 1 2 2 1 1 0 1 0 1 1 2 2 2 2 2 3
3 3 3 4 4 4 5 5 4 4 4 4 4 5 5 5 7 6 7 6 6 5 5 4 3 3 3 2 2 2 2 2 1 1 1 1 1 1 2 2 2 3 3
4 3 3 4 5 5 5 5 4 5 5 5 5 5 6 7 8 6 6 5 5 6 6 6 5 4 5 3 2 2 2 2 3 4 3 2 1 1 2 2 3 3 3
4 4 4 4 5 5 5 5 5 5 6 6 7 7 8 7 9 8 6 4 5 5 5 6 10 8 8 7 4 3 3 2 2 1 1 0 0 1 1 2 2 3 3
5 6 6 5 6 6 6 6 6 6 6 7 8 7 7 8 9 10 7 4 4 4 5 5 5 7 8 9 7 5 4 3 2 1 1 1 2 2 2 1 1 1 2
7 8 8 7 7 7 7 6 6 6 7 7 7 7 6 6 8 9 10 9 7 6 5 4 4 7 8 8 6 6 6 5 2 3 4 3 3 3 2 2 2 1 2
9 9 9 9 8 7 7 6 5 4 5 5 5 6 6 5 7 9 9 10 9 6 4 5 4 4 4 4 5 6 6 4 4 4 4 3 2 2 2 2 3 2 3
9 9 8 9 9 9 7 7 6 5 5 5 6 6 6 5 5 4 4 5 6 5 3 3 2 2 3 4 4 3 3 4 3 3 3 3 3 3 3 3 3 3 3
8 8 9 9 9 10 10 9 8 8 6 6 6 5 6 6 4 5 3 4 3 3 1 1 1 2 3 3 3 3 4 4 4 3 3 3 3 3 3 3 3 3 3
7 7 7 7 7 8 9 10 16 13 16 17 13 10 8 7 6 8 9 9 8 7 4 3 4 4 4 4 4 4 4 4 4 4 4 4 4 4 4 3 3 3 4
7 6 6 6 6 7 7 8 9 9 14 15 13 12 10 7 7 7 7 6 6 5 4 5 5 5 4 5 5 5 4 4 4 4 4 4 4 4 4 4 3 4 4
7 7 6 5 6 6 6 7 7 8 7 6 7 7 7 6 6 6 5 3 3 4 5 5 4 4 4 5 5 5 4 4 4 4 4 5 5 5 5 5 4 4 4
6 5 5 5 5 5 5 6 6 7 7 7 6 4 2 2 3 4 4 3 5 5 5 5 5 5 5 5 4 4 4 4 5 4 4 5 5 5 5 5 5 6 5
6 7 5 4 5 5 5 6 6 6 6 6 5 4 2 2 3 3 3 4 5 5 5 4 4 5 4 4 4 4 4 4 5 5 5 5 5 5 5 6 5 5 5
5 5 5 4 5 6 5 5 5 5 6 6 5 5 3 3 4 5 5 5 5 5 5 4 4 4 4 4 5 6 6 6 6 6 6 6 6 5 5 5 5 5 5
4 4 4 5 5 5 5 5 6 6 6 7 5 5 4 3 5 5 5 5 5 5 5 4 5 5 5 5 6 6 7 7 7 7 7 7 6 6 5 5 5 5 5
4 5 6 6 5 5 5 5 5 6 6 5 5 4 4 4 4 5 5 5 4 4 4 4 5 6 6 6 6 6 6 6 6 7 7 7 7 6 6 5 6 7 6
5 6 6 5 5 5 5 5 5 5 5 5 4 4 4 4 5 5 5 4 4 4 4 4 5 7 8 6 5 6 6 5 7 6 8 8 8 6 6 6 6 7 6
5 6 6 6 5 5 5 5 5 4 4 4 4 4 4 4 4 4 4 4 4 4 4 4 4 5 8 9 7 6 5 5 5 6 7 7 8 7 6 6 6 6 6
6 6 6 6 5 5 5 4 4 4 4 4 4 4 4 4 4 4 3 3 3 3 3 4 5 7 7 6 7 6 5 5 6 7 6 7 7 5 6 5 7 6 6
Wind_Direction
171 177 177 178 186 190 198 206 196 191 191 188 194 196 198 204 209 209 216 213 207 213 220 219 221 228 241 246 240 237 241 226 242 264 259 279 197 180 165 229 226 195 204
162 158 166 169 175 184 193 192 180 181 190 188 195 194 199 203 206 210 218 217 213 213 216 218 221 223 221 240 251 246 247 240 231 251 267 278 251 218 189 231 253 245 224
161 160 158 163 169 174 182 167 159 162 159 163 180 191 206 208 204 211 215 227 229 223 214 210 218 224 222 221 226 256 269 268 238 235 255 261 251 262 234 248 263 280 278
156 161 154 157 161 163 156 141 144 150 151 159 163 170 187 215 225 216 197 214 233 228 204 183 212 221 230 229 218 221 241 276 291 281 272 282 287 290 293 275 288 290 289
141 145 144 146 141 136 141 142 137 129 142 140 132 116 105 130 279 244 177 189 168 107 90 90 74 64 80 131 164 148 239 275 282 273 275 291 326 345 343 316 310 306 305
141 138 130 131 136 142 141 133 123 115 108 101 94 95 80 48 46 68 96 98 95 94 85 90 89 65 61 95 98 89 81 149 275 274 302 335 342 350 346 334 333 325 315
130 125 130 134 134 137 136 125 120 113 106 101 97 87 77 57 61 77 87 92 80 69 64 54 37 47 53 69 107 102 85 57 215 224 294 322 347 356 341 328 324 307 283
123 123 127 129 129 127 120 118 115 108 105 97 89 86 81 57 56 77 97 92 81 70 60 52 50 36 15 9 77 83 78 57 75 108 95 48 38 0 344 322 306 301 288
104 104 114 123 123 120 119 113 107 104 100 94 87 82 79 61 50 64 92 93 87 74 61 47 44 40 19 40 94 93 84 65 67 84 109 135 116 16 360 353 346 345 335
92 98 100 106 111 112 113 112 105 102 100 95 83 73 73 64 51 59 76 92 93 86 73 59 50 46 38 42 59 65 58 31 43 71 89 148 226 13 26 15 1 351 340
87 89 90 92 97 100 100 102 105 104 101 97 91 81 73 66 57 55 60 73 84 85 77 67 51 47 52 51 55 54 37 9 354 12 78 66 56 46 48 39 26 354 328
88 87 84 82 88 95 97 98 103 108 107 104 100 91 76 67 59 57 60 61 62 71 71 70 68 58 55 49 48 33 21 14 11 32 45 39 33 25 6 352 333 298 263
90 88 87 84 78 79 86 87 88 89 97 100 98 93 82 70 61 60 67 67 66 72 75 82 76 61 61 59 47 31 27 29 33 36 33 24 8 352 340 339 336 325 313
96 93 90 86 78 66 60 61 61 58 81 90 88 90 86 69 54 44 56 68 76 76 77 102 106 67 41 54 52 44 44 35 29 29 17 5 356 360 4 357 350 342 335
101 99 95 90 88 79 67 53 60 48 47 77 82 84 87 77 39 33 45 47 42 40 22 98 85 75 64 59 57 50 43 32 20 12 12 7 1 358 355 358 354 344 341
112 111 108 108 105 101 96 79 56 62 61 64 69 83 81 80 69 50 44 37 32 25 36 54 56 49 49 49 48 49 47 35 20 17 17 10 3 359 355 356 352 345 343
104 105 109 111 113 115 114 110 101 73 63 63 65 73 80 77 63 49 37 20 15 30 54 57 55 46 39 39 40 38 40 37 22 19 17 7 360 355 354 354 353 353 347
103 98 103 104 105 108 112 118 119 119 108 91 72 72 74 68 49 28 23 25 53 54 57 56 52 46 42 35 35 32 31 31 19 13 15 6 359 357 355 352 353 355 344
96 96 95 104 112 114 115 111 108 108 108 111 112 99 87 88 52 25 21 41 61 59 55 52 44 42 39 34 30 24 24 27 16 9 15 4 357 356 355 348 346 349 343
87 89 94 106 109 112 112 109 108 110 108 106 102 98 114 136 98 80 65 50 56 57 51 54 48 45 40 30 27 20 18 22 14 9 6 357 354 355 351 345 344 342 341
98 94 94 97 95 96 99 101 102 102 102 98 88 72 48 75 79 73 68 56 51 55 50 45 47 44 38 27 23 18 19 20 15 6 0 354 352 347 341 339 340 340 339
102 102 91 87 87 84 86 94 95 94 96 100 106 96 68 61 69 72 69 65 58 52 50 40 39 42 33 24 25 23 23 19 10 360 351 345 342 338 339 341 341 339 341
106 104 97 93 92 94 90 85 86 88 88 89 91 89 82 70 71 69 67 62 58 54 50 47 42 40 35 32 36 36 24 12 356 345 341 338 334 331 331 335 337 339 341
93 92 93 97 95 93 90 89 87 88 90 89 87 86 84 77 72 69 66 62 58 53 48 49 48 44 45 38 33 37 33 10 346 337 335 321 315 319 328 331 331 333 332
90 93 93 92 91 90 88 87 86 86 86 86 83 79 81 81 80 76 69 62 62 57 51 54 49 48 50 45 37 31 20 360 348 334 318 308 308 318 327 329 331 331 334
87 90 91 90 87 87 89 90 87 83 83 83 82 78 73 74 75 74 70 59 55 62 53 58 60 58 52 46 40 31 6 348 338 325 309 300 305 323 337 331 331 332 336